Location: Altmatt
(47.1333°N, 8.7000°E)
Time: 17:55:24
(UTC+00:00)

Cosmos 2263 - Pass Details

Date: 13 July 2020
Orbit: 830 x 867 km, 70.9° (Epoch: 12 August)

Event Time Altitude Azimuth Distance (km) Brightness Sun altitude
Rises 22:19:56 0° 333° (NNW) 3,439 8.9 -19.4°
Reaches altitude 10° 22:22:24 10° 335° (NNW) 2,504 7.9 -19.5°
Maximum altitude 22:28:11 79° 62° (ENE) 884 4.2 -19.8°
Enters shadow 22:30:43 35° 144° (SE) 1,358 4.8 -19.9°
